Weather History for KFLP - November, 2011

Change the Weather History Date:

Tuesday, November 1, 2011

  Actual Average Record
Temperature  
Mean Temperature 46 °F -  
Max Temperature 57 °F 64 °F 80 °F (2003)
Min Temperature 41 °F 45 °F 26 °F (2014)
Degree Days  
Heating Degree Days 19    
Moisture  
Dew Point 34 °F    
Average Humidity 62    
Maximum Humidity 76    
Minimum Humidity 47    
Precipitation  
Precipitation 0.00 in - - ()
Sea Level Pressure  
Sea Level Pressure 30.12 in    
Wind  
Wind Speed 4 mph (SSE)    
Max Wind Speed 12 mph    
Max Gust Speed 22 mph    
Visibility 10 miles    
Events      
Averages and records for this station are not official NWS values.
T = Trace of Precipitation, MM = Missing Value Source: NWS Daily Summary

Daily Weather History Graph

Daily Weather History Graph

Search for Another Location

Airport or City:

Trip Planner

Search our weather history database for the weather conditions in past years. The results will help you decide how hot, cold, wet, or windy it might be!

Date:

Astronomy

Nov. 01, 2011 Rise Set
Actual Time 7:33 AM CDT 6:14 PM CDT
Civil Twilight 7:06 AM CDT 6:40 PM CDT
Nautical Twilight 6:36 AM CDT 7:11 PM CDT
Astronomical Twilight 6:06 AM CDT 7:41 PM CDT
Moon 1:18 PM CDT (11/1) 11:58 PM CDT (11/1)
Length of Visible Light 11h 34m
Length of Day
10h 41m
Waxing Crescent, 40% of the Moon is Illuminated
Nov 1
Waxing Crescent
Nov 2
First Quarter
Nov 10
Full
Nov 18
Last Quarter
Nov 25
New

Hourly Weather History & Observations

Time (CDT) Temp. Dew Point Humidity Pressure Visibility Wind Dir Wind Speed Gust Speed Precip Events Conditions
12:15 AM - - N/A% 30.12 in 10.0 mi SSE 4.6 mph - N/A   Clear
12:35 AM - - N/A% 30.12 in 10.0 mi SSE 3.5 mph - N/A   Clear
12:55 AM - - N/A% 30.12 in 10.0 mi Calm Calm - N/A   Clear
1:15 AM - - N/A% 30.12 in 10.0 mi SSE 3.5 mph - N/A   Clear
1:35 AM 51.8 °F 33.8 °F 50% 30.12 in 10.0 mi South 3.5 mph - N/A   Clear
1:55 AM - - N/A% 30.12 in 10.0 mi South 3.5 mph - N/A   Clear
2:35 AM 50.0 °F 33.8 °F 54% 30.13 in 10.0 mi SSE 3.5 mph - N/A   Clear
2:55 AM 51.8 °F 33.8 °F 50% 30.14 in 10.0 mi SSE 3.5 mph - N/A   Clear
3:15 AM 50.0 °F 33.8 °F 54% 30.15 in 10.0 mi Calm Calm - N/A   Clear
3:35 AM 51.8 °F 32.0 °F 47% 30.15 in 10.0 mi Calm Calm - N/A   Clear
3:55 AM 50.0 °F 33.8 °F 54% 30.15 in 10.0 mi Calm Calm - N/A   Clear
4:15 AM 46.4 °F 33.8 °F 62% 30.15 in 10.0 mi Calm Calm - N/A   Clear
4:35 AM 44.6 °F 33.8 °F 66% 30.16 in 10.0 mi Calm Calm - N/A   Clear
4:55 AM 44.6 °F 33.8 °F 66% 30.15 in 10.0 mi Calm Calm - N/A   Clear
5:15 AM 44.6 °F 33.8 °F 66% 30.15 in 10.0 mi Calm Calm - N/A   Clear
5:35 AM 44.6 °F 35.6 °F 71% 30.16 in 10.0 mi Calm Calm - N/A   Clear
5:55 AM 42.8 °F 33.8 °F 70% 30.16 in 10.0 mi Calm Calm - N/A   Clear
6:15 AM 42.8 °F 33.8 °F 70% 30.16 in 10.0 mi Calm Calm - N/A   Clear
6:35 AM 41.0 °F 33.8 °F 76% 30.15 in 10.0 mi Calm Calm - N/A   Clear
6:55 AM 41.0 °F 33.8 °F 76% 30.15 in 10.0 mi Calm Calm - N/A   Clear
7:15 AM 41.0 °F 33.8 °F 76% 30.15 in 10.0 mi Calm Calm - N/A   Clear
8:15 AM - - N/A% 30.16 in 10.0 mi Calm Calm - N/A   Clear
8:35 AM - - N/A% 30.16 in 10.0 mi Calm Calm - N/A   Clear
8:55 AM - - N/A% 30.16 in 10.0 mi SSE 4.6 mph - N/A   Clear
9:15 AM - - N/A% 30.16 in 10.0 mi SSE 5.8 mph - N/A   Clear
9:35 AM 57.2 °F 37.4 °F 48% 30.17 in 10.0 mi South 5.8 mph - N/A   Clear
9:55 AM - - N/A% 30.17 in 10.0 mi SSE 5.8 mph - N/A   Clear
10:15 AM - - N/A% 30.17 in 10.0 mi South 8.1 mph - N/A   Clear
10:35 AM - - N/A% 30.17 in 10.0 mi South 3.5 mph - N/A   Clear
11:15 AM - - N/A% 30.17 in 10.0 mi South 6.9 mph - N/A   Clear
12:15 PM - - N/A% 30.14 in 10.0 mi SSW 6.9 mph - N/A   Clear
12:55 PM - - N/A% 30.13 in 10.0 mi SW 11.5 mph 21.9 mph N/A   Clear
1:15 PM - - N/A% 30.12 in 10.0 mi SW 11.5 mph 18.4 mph N/A   Clear
1:35 PM - - N/A% 30.10 in 10.0 mi SSE 6.9 mph - N/A   Clear
2:15 PM - - N/A% 30.09 in 10.0 mi South 9.2 mph - N/A   Clear
2:55 PM - - N/A% 30.08 in 10.0 mi SSE 10.4 mph 19.6 mph N/A   Clear
3:15 PM - - N/A% 30.08 in 10.0 mi South 9.2 mph 17.3 mph N/A   Clear
3:55 PM - - N/A% 30.08 in 10.0 mi South 6.9 mph 16.1 mph N/A   Clear
4:35 PM - - N/A% 30.08 in 10.0 mi South 10.4 mph 17.3 mph N/A   Clear
4:55 PM - - N/A% 30.08 in 10.0 mi South 9.2 mph 17.3 mph N/A   Clear
5:15 PM - - N/A% 30.08 in 10.0 mi South 6.9 mph - N/A   Clear
5:35 PM - - N/A% 30.08 in 10.0 mi SSE 10.4 mph - N/A   Clear
5:55 PM - - N/A% 30.07 in 10.0 mi SSE 5.8 mph 18.4 mph N/A   Clear
6:35 PM - - N/A% 30.07 in 10.0 mi SSE 5.8 mph - N/A   Clear
7:15 PM - - N/A% 30.07 in 10.0 mi SE 4.6 mph - N/A   Clear
7:35 PM - - N/A% 30.07 in 10.0 mi SSE 5.8 mph - N/A   Clear
7:55 PM - - N/A% 30.07 in 10.0 mi SE 6.9 mph - N/A   Clear
8:35 PM - - N/A% 30.07 in 10.0 mi SSE 4.6 mph - N/A   Clear
8:55 PM - - N/A% 30.07 in 10.0 mi SSE 5.8 mph - N/A   Clear
9:15 PM - - N/A% 30.07 in 10.0 mi SSE 4.6 mph - N/A   Clear
9:35 PM - - N/A% 30.07 in 10.0 mi SSE 5.8 mph - N/A   Clear
10:15 PM - - N/A% 30.07 in 10.0 mi SSE 8.1 mph - N/A   Clear
10:35 PM - - N/A% 30.07 in 10.0 mi South 5.8 mph - N/A   Clear
10:55 PM - - N/A% 30.07 in 10.0 mi SSE 3.5 mph - N/A   Clear
11:35 PM - - N/A% 30.06 in 10.0 mi SSE 6.9 mph - N/A   Clear
11:55 PM - - N/A% 30.06 in 10.0 mi SSE 6.9 mph - N/A   Clear